[[{"header":{"parameterUnit":"m.s-1","parameterCategory":1,"la1":30.2991,"la2":30.254,"lo1":-89.0895,"lo2":-89.0444,"dy":0.0017,"dx":0.0017,"nx":28,"ny":28,"refTime":"2024-06-04T09:00:00:Z","depth":0,"parameterNumber":2,"parameterNumberName":"U-component_of_WINDS"},"data":[0,0,0,0,0,0,0,0,0,0,0,0,0,0,0,0,0,0,0,0,0,0,0,0,0,0,0,0,0,0,0,0,0,0,0,0,0,0,0,0,0,0,0,0,0,0,0,0,0,0,0,0,0,0,0,0,0,0,-1.782,-1.782,0,-1.7821,-1.7821,-1.7821,-1.7805,-1.7804,-1.7804,-1.7803,-1.7805,-1.7805,-1.7806,0,0,0,0,0,0,0,0,0,0,0,0,0,-1.7806,-1.7807,-1.782,-1.782,-1.782,-1.7821,-1.7821,-1.7821,-1.7805,-1.7804,-1.7804,-1.7803,-1.7805,-1.7805,-1.7806,0,0,0,0,0,0,0,0,0,0,0,0,0,-1.781,-1.7807,-1.782,-1.7812,-1.7812,-1.7821,-1.7821,-1.7821,-1.7805,-1.7804,-1.7803,-1.7803,-1.7805,-1.7805,-1.7806,-1.7823,0,0,-1.7808,-1.7808,0,0,0,0,0,0,0,0,-1.781,-1.7811,-1.7813,-1.7813,-1.7812,-1.7812,-1.7817,-1.7822,-1.7805,-1.7807,-1.7803,-1.7803,-1.7808,-1.7808,-1.781,-1.7823,-1.7823,-1.7808,-1.7808,-1.7809,-1.7809,0,0,0,0,0,0,0,-1.781,-1.7811,-1.7821,-1.7813,-1.7813,-1.7809,-1.7809,-1.7818,-1.7811,-1.7807,-1.7806,-1.7806,-1.7807,-1.7809,-1.781,-1.7823,-1.7808,-1.7809,-1.7809,-1.7809,-1.7852,-1.7853,0,0,0,0,0,0,-1.7811,-1.7811,-1.7821,-1.7821,-1.7809,-1.781,-1.781,-1.7813,-1.7811,-1.781,-1.7807,-1.7805,-1.7808,-1.7809,-1.781,-1.783,-1.7809,-1.7809,-1.781,-1.7851,-1.7852,-1.7853,0,0,0,0,0,0,-1.781,-1.7812,-1.7821,-1.7815,-1.7816,-1.7811,-1.7814,-1.7813,-1.7815,-1.7811,-1.781,-1.781,-1.7808,-1.7809,-1.782,-1.783,-1.781,-1.781,-1.7851,-1.7852,-1.7853,-1.7871,0,0,0,0,0,0,-1.781,-1.7812,-1.7818,-1.7816,-1.7816,-1.7831,-1.7815,-1.7814,-1.7816,-1.7814,-1.7813,-1.7813,-1.7807,-1.7819,-1.7821,-1.7831,-1.7811,-1.785,-1.7851,-1.7852,-1.787,-1.7873,-1.7876,0,0,0,0,0,-1.781,-1.7823,-1.7818,-1.7819,-1.7824,-1.7831,-1.7832,-1.7825,-1.7817,-1.7823,-1.7821,-1.7813,-1.7829,-1.782,-1.7822,-1.7832,-1.7849,-1.7851,-1.7852,-1.7868,-1.7872,-1.7875,0,0,0,0,0,0,-1.7827,-1.7823,-1.7817,-1.783,-1.7831,-1.7828,-1.7836,-1.7829,-1.7833,-1.7831,-1.7823,-1.7823,-1.7836,-1.7835,-1.7826,-1.785,-1.7837,-1.784,-1.7849,-1.7853,-1.7856,-1.7855,-1.7811,0,0,0,0,0,-1.7832,-1.7838,-1.7834,-1.7846,-1.7847,-1.7841,-1.7844,-1.7839,-1.784,-1.784,-1.7839,-1.784,-1.7846,-1.7849,-1.7854,-1.787,-1.787,-1.7878,-1.7881,-1.7883,-1.7885,-1.7894,-1.7897,-1.7858,-1.7858,-1.7858,0,0,-1.7843,-1.7841,-1.7845,-1.7849,-1.7849,-1.7856,-1.7842,-1.7849,-1.7854,-1.7842,-1.7852,-1.7851,-1.7852,-1.7866,-1.7872,-1.7866,-1.7896,-1.7885,-1.7887,-1.7888,-1.7896,-1.7899,-1.7903,-1.786,-1.7859,-1.7859,0,0,-1.7866,-1.7865,-1.7875,-1.7876,-1.7876,-1.7873,-1.7875,-1.7874,-1.7873,-1.7883,-1.7874,-1.788,-1.789,-1.7891,-1.7893,-1.7918,-1.791,-1.7919,-1.7934,-1.7943,-1.7946,-1.7949,-1.7958,-1.7961,-1.7921,-1.7921,-1.7921,0,-1.7879,-1.7888,-1.7881,-1.7889,-1.7892,-1.7881,-1.7891,-1.7892,-1.7894,-1.7896,-1.789,-1.7902,-1.7902,-1.7916,-1.7922,-1.7924,-1.7927,-1.7919,-1.7946,-1.7949,-1.7951,-1.796,-1.7963,-1.7922,-1.7922,-1.7922,-1.7922,0,-1.7905,-1.7912,-1.792,-1.7922,-1.7925,-1.7935,-1.7929,-1.7934,-1.7929,-1.7926,-1.7938,-1.7937,-1.7942,-1.7945,-1.794,-1.7959,-1.7955,-1.7948,-1.7935,-1.7956,-1.7964,-1.7967,-1.7924,-1.7924,-1.7923,-1.7923,0,0,-1.7938,-1.7937,-1.794,-1.7941,-1.7941,-1.7946,-1.7956,-1.796,-1.7964,-1.7966,-1.7974,-1.7983,-1.7976,-1.7978,-1.7973,-1.7981,-1.8001,-1.7973,-1.7972,-1.7978,-1.8022,-1.8028,-1.8031,-1.7997,-1.7997,-1.7998,-1.8022,0,-1.7961,-1.7976,-1.797,-1.7986,-1.7992,-1.7982,-1.799,-1.7992,-1.799,-1.7995,-1.7994,-1.8,-1.799,-1.7992,-1.7999,-1.7997,-1.801,-1.7995,-1.8004,-1.8004,-1.8004,-1.8035,-1.8041,-1.8064,-1.8025,-1.8025,-1.8026,0,-1.7989,-1.7992,-1.8008,-1.8008,-1.801,-1.8017,-1.8021,-1.8027,-1.8028,-1.8027,-1.803,-1.8024,-1.8033,-1.8021,-1.8035,-1.8025,-1.8029,-1.8028,-1.8029,-1.8029,-1.8016,-1.8037,-1.8071,-1.8075,-1.8031,-1.803,-1.803,0,-1.8012,-1.802,-1.8031,-1.8032,-1.8032,-1.8037,-1.8037,-1.8038,-1.8042,-1.8045,-1.8048,-1.8053,-1.8055,-1.806,-1.8056,-1.8047,-1.807,-1.8057,-1.8069,-1.8069,-1.8074,-1.8073,-1.8109,-1.8076,-1.8076,-1.8076,-1.8076,0,-1.8037,-1.8047,-1.8041,-1.8048,-1.8059,-1.8053,-1.8065,-1.8064,-1.8065,-1.8072,-1.8064,-1.8071,-1.8065,-1.8071,-1.8068,-1.808,-1.8081,-1.8081,-1.808,-1.8081,-1.8081,-1.8083,-1.8081,-1.8077,-1.8077,-1.8077,-1.8076,0,-1.8064,-1.806,-1.8071,-1.807,-1.807,-1.8079,-1.8078,-1.8085,-1.8083,-1.8091,-1.8093,-1.809,-1.8097,-1.8094,-1.8101,-1.8099,-1.8115,-1.8112,-1.8114,-1.8113,-1.8125,-1.8124,-1.8163,-1.8167,-1.8132,-1.8132,-1.8132,0,-1.8081,-1.8088,-1.8088,-1.8092,-1.8093,-1.8099,-1.8102,-1.8097,-1.8101,-1.8104,-1.811,-1.8116,-1.8121,-1.8133,-1.8132,-1.8138,-1.8135,-1.8148,-1.8136,-1.8137,-1.8135,-1.8135,-1.8136,-1.8151,-1.8151,-1.8151,-1.8152,0,-1.811,-1.8108,-1.8113,-1.8117,-1.8122,-1.8125,-1.8128,-1.8131,-1.8126,-1.8131,-1.8138,-1.8142,-1.815,-1.8156,-1.8162,-1.8163,-1.8157,-1.8156,-1.8159,-1.816,-1.8161,-1.8161,-1.8121,-1.8155,-1.8154,-1.8154,-1.8154,-1.8154,-1.8133,-1.8139,-1.814,-1.8146,-1.8148,-1.815,-1.8156,-1.8155,-1.8161,-1.8167,-1.8163,-1.8172,-1.8174,-1.818,-1.8182,-1.8189,-1.8184,-1.8188,-1.8189,-1.819,-1.8192,-1.816,-1.819,-1.819,-1.819,-1.819,-1.819,0,-1.8162,-1.8162,-1.8168,-1.8172,-1.8177,-1.817,-1.8173,-1.8178,-1.8185,-1.8188,-1.8193,-1.8201,-1.8208,-1.8207,-1.8214,-1.8219,-1.8217,-1.8221,-1.8221,-1.8221,-1.8196,-1.8193,-1.8223,-1.8223,-1.8223,-1.8223,-1.8223,-1.8223,-1.8178,-1.8189,-1.8187,-1.8199,-1.8199,-1.8207,-1.8209,-1.8212,-1.8214,-1.8224,-1.8229,-1.8228,-1.823,-1.8236,-1.8242,-1.8242,-1.8245,-1.825,-1.8249,-1.8226,-1.8223,-1.8219,-1.8216,-1.8251,-1.8251,-1.8273,-1.8274,-1.8274]},{"header":{"parameterUnit":"m.s-1","parameterCategory":1,"la1":30.2991,"la2":30.254,"lo1":-89.0895,"lo2":-89.0444,"dy":0.0017,"dx":0.0017,"nx":28,"ny":28,"refTime":"2024-06-04T09:00:00:Z","depth":0,"parameterNumber":3,"parameterNumberName":"V-component_of_WINDS"},"data":[0,0,0,0,0,0,0,0,0,0,0,0,0,0,0,0,0,0,0,0,0,0,0,0,0,0,0,0,0,0,0,0,0,0,0,0,0,0,0,0,0,0,0,0,0,0,0,0,0,0,0,0,0,0,0,0,0,0,4.5835,4.5837,0,4.5973,4.5975,4.5976,4.5981,4.598,4.5978,4.5977,4.6113,4.6118,4.6124,0,0,0,0,0,0,0,0,0,0,0,0,0,4.5572,4.5577,4.5835,4.5837,4.5839,4.5973,4.5975,4.5977,4.5982,4.598,4.5978,4.5976,4.6112,4.6118,4.6124,0,0,0,0,0,0,0,0,0,0,0,0,0,4.5695,4.5578,4.5835,4.5858,4.5861,4.5973,4.5975,4.5977,4.5982,4.598,4.5977,4.5975,4.611,4.6117,4.6125,4.6222,0,0,4.6149,4.6152,0,0,0,0,0,0,0,0,4.5688,4.5705,4.5852,4.5856,4.586,4.5958,4.5932,4.6059,4.5983,4.5936,4.5977,4.5974,4.6063,4.6075,4.6106,4.6228,4.6234,4.6149,4.6154,4.6157,4.616,0,0,0,0,0,0,0,4.568,4.5699,4.589,4.5855,4.5859,4.5859,4.5874,4.5956,4.6012,4.594,4.5941,4.5957,4.6065,4.6098,4.6109,4.6236,4.6149,4.6156,4.6161,4.6164,4.6445,4.6448,0,0,0,0,0,0,4.5667,4.5692,4.5885,4.5894,4.5767,4.5866,4.5883,4.5929,4.6011,4.6021,4.5959,4.5957,4.6086,4.61,4.6114,4.6234,4.6157,4.6165,4.6169,4.6443,4.6446,4.6449,0,0,0,0,0,0,4.5662,4.5685,4.588,4.5793,4.5818,4.5873,4.5925,4.5933,4.5966,4.6025,4.6035,4.5983,4.6085,4.6103,4.6196,4.6239,4.6168,4.6175,4.6439,4.6444,4.6448,4.6474,0,0,0,0,0,0,4.5654,4.5683,4.5721,4.5794,4.5823,4.5961,4.5928,4.5937,4.598,4.5979,4.6051,4.606,4.6084,4.6184,4.6203,4.6248,4.6181,4.6436,4.6441,4.6446,4.6469,4.6478,4.6486,0,0,0,0,0,4.5645,4.5722,4.5723,4.5747,4.5872,4.5963,4.5979,4.6007,4.5984,4.6022,4.606,4.6058,4.623,4.6193,4.6215,4.6263,4.6433,4.644,4.6446,4.6465,4.6476,4.6486,0,0,0,0,0,0,4.5651,4.5732,4.5734,4.5838,4.5894,4.5964,4.6014,4.6017,4.608,4.6076,4.6106,4.6122,4.6214,4.6247,4.6205,4.6361,4.6329,4.634,4.6336,4.6347,4.6355,4.6346,4.6188,0,0,0,0,0,4.5665,4.5734,4.5799,4.5884,4.5912,4.5958,4.5999,4.6015,4.6074,4.6097,4.6141,4.6197,4.6264,4.6307,4.6372,4.6473,4.6489,4.6517,4.6525,4.6532,4.6541,4.6598,4.6611,4.647,4.647,4.647,0,0,4.5694,4.5746,4.5787,4.5887,4.5932,4.6001,4.5978,4.6052,4.6103,4.6107,4.6199,4.6233,4.6297,4.6394,4.644,4.6425,4.6583,4.654,4.6545,4.6551,4.6606,4.6619,4.6631,4.6474,4.6474,4.6473,0,0,4.5782,4.5828,4.5905,4.5951,4.602,4.605,4.6068,4.6138,4.6161,4.6253,4.6258,4.6318,4.6432,4.6478,4.6516,4.662,4.6621,4.664,4.6685,4.6739,4.675,4.676,4.6798,4.6811,4.6649,4.6649,4.6649,0,4.5808,4.5914,4.5943,4.6017,4.6061,4.6069,4.6146,4.6188,4.6275,4.6304,4.6286,4.643,4.6474,4.6583,4.6608,4.6638,4.666,4.6633,4.6747,4.6757,4.6767,4.6803,4.6817,4.6651,4.6651,4.6651,4.6651,0,4.5944,4.6017,4.6069,4.6155,4.6203,4.6278,4.6317,4.6363,4.6375,4.6406,4.6499,4.6551,4.6627,4.6653,4.6665,4.6764,4.6753,4.6741,4.6709,4.6782,4.6816,4.683,4.6654,4.6653,4.6653,4.6652,0,0,4.6041,4.6141,4.616,4.6198,4.6275,4.6331,4.6406,4.6481,4.652,4.6579,4.6642,4.6738,4.6728,4.6771,4.6787,4.6835,4.6915,4.6817,4.6819,4.6834,4.7028,4.7037,4.7053,4.6915,4.6918,4.692,4.7022,0,4.6138,4.6273,4.6301,4.6418,4.6485,4.6494,4.6559,4.6612,4.6643,4.6703,4.6736,4.6804,4.6785,4.6811,4.6859,4.6895,4.6955,4.6888,4.6974,4.6977,4.6959,4.7071,4.7082,4.7176,4.7036,4.7038,4.704,0,4.627,4.6334,4.6458,4.6526,4.6555,4.6613,4.6684,4.6742,4.6802,4.6821,4.6869,4.688,4.6957,4.6921,4.7027,4.6981,4.7017,4.704,4.7044,4.7054,4.7014,4.7085,4.7206,4.7221,4.7062,4.706,4.7058,0,4.633,4.6446,4.6535,4.6568,4.6649,4.669,4.6725,4.6783,4.6827,4.6888,4.6916,4.6985,4.7023,4.7075,4.7104,4.7075,4.7208,4.7174,4.7225,4.7224,4.7254,4.7252,4.7384,4.7275,4.7275,4.7274,4.7274,0,4.6436,4.6512,4.6563,4.6619,4.6703,4.6733,4.6815,4.685,4.6901,4.6962,4.6972,4.7029,4.7063,4.7124,4.7147,4.7231,4.7247,4.7264,4.727,4.7264,4.7262,4.7289,4.7284,4.7278,4.7277,4.7277,4.7276,0,4.6518,4.6556,4.6654,4.6723,4.6742,4.6801,4.6859,4.6912,4.6943,4.702,4.7039,4.7086,4.7159,4.7193,4.7281,4.7297,4.7393,4.7393,4.7373,4.7376,4.7425,4.7421,4.758,4.7603,4.7478,4.7479,4.748,0,4.6584,4.6643,4.6718,4.6761,4.6798,4.6865,4.691,4.6941,4.6987,4.706,4.7104,4.7177,4.7237,4.7352,4.7393,4.7461,4.7464,4.7515,4.7474,4.7467,4.7466,4.7463,4.7469,4.7523,4.7524,4.7525,4.7526,0,4.6698,4.6714,4.6779,4.6851,4.6904,4.6962,4.7018,4.7051,4.7091,4.7141,4.7217,4.7263,4.7355,4.7427,4.7498,4.7532,4.7536,4.7538,4.7554,4.755,4.7537,4.7545,4.7395,4.7535,4.7534,4.7533,4.7533,4.7532,4.6775,4.6828,4.6889,4.6961,4.7007,4.7059,4.7113,4.715,4.7214,4.7292,4.7305,4.7385,4.7443,4.7538,4.7575,4.7637,4.7625,4.7648,4.7653,4.7659,4.7662,4.7526,4.765,4.765,4.7649,4.7649,4.7649,0,4.689,4.693,4.6996,4.7076,4.7132,4.7131,4.7193,4.724,4.731,4.7364,4.7424,4.751,4.758,4.7626,4.7697,4.7737,4.7741,4.7755,4.7753,4.7761,4.7669,4.7649,4.7751,4.7751,4.7751,4.7751,4.7751,4.7751,4.6957,4.7047,4.707,4.7181,4.722,4.73,4.7335,4.7383,4.7427,4.7523,4.7582,4.7612,4.7663,4.7737,4.7801,4.7812,4.7838,4.7853,4.7864,4.7778,4.7767,4.7757,4.7739,4.7858,4.7858,4.7952,4.7953,4.7953]}]]